{"data":{"norad_id":53206,"epoch":"2026-05-25T03:32:48.427008Z","epoch_age_seconds":55469,"freshness":"FRESH","line1":"1 53206U 22084T   26145.14778272 -.00002195  00000+0 -14805-3 0  9997","line2":"2 53206  97.4463 206.2016 0002333 130.0229 230.1203 15.05659227210888","mean_motion":15.05659227,"eccentricity":0.0002333,"inclination_deg":97.4463,"raan_deg":206.2016,"arg_perigee_deg":130.0229,"mean_anomaly_deg":230.1203,"bstar":-0.00014805,"rev_number":21088,"period_min":95.639170814845,"perigee_km":547.86663756463,"apogee_km":551.09906498723,"semimajor_km":6927.6198512759,"source":"CELESTRAK","updated_at":"2026-05-25T13:38:17.353007Z"}}